Погода в Петровском Заводе

Россия / Республика Татарстан     55°19′07″N   52°29′43″E
темп.,
°C
ветер,
м/с
пор.,
м/с
влажн.,
%
обл.,
%
осадки,
мм/ч
давл.,
гПа
погр.,
м
14 июня, пн
пн1400:00+15ююв23855 0.0 101525
03:00+15юв3383100 0.0 101629
06:00+19юв3578100 0.0 1016150
09:00+23ююв3462100 0.0 1016392
12:00+26ю235399 0.0 10161134
15:00+27ююв3454100 0.0 10151581
18:00+24ююв2375100 0.1 101457
21:00+18ююз3790100 0.8 1014121
15 июня, вт
вт1500:00+18зюз3794100 0.9 1015156
03:00+17юз2288100 1.4 101524
06:00+18ююз2488100 0.3 1015169
09:00+22зюз347434 0.4 1016694
12:00+24з4466100 0.1 1016997
15:00+24юз226791 0.1 1015769
18:00+24ююз237318 0.0 1014150
21:00+19св008250 0.0 101411
16 июня, ср
ср1600:00+18в228398 0.0 101335
03:00+18вюв4984100 0.0 1012156
06:00+19вюв41075100 0.0 1010187
09:00+24ю61160100 0.0 1010696
12:00+26ю61359100 0.0 10091424
15:00+26ю69615 0.0 10081380
18:00+22ююз5108010 5.4 1007349
21:00+18юз4119249 5.6 1007258
17 июня, чт
чт1700:00+17зюз4897100 0.0 1006187
03:00+16сз71292100 0.0 1009605
06:00+14ссз712890 0.1 1011517
09:00+17ссз79636 0.1 1013983
12:00+19ссз785414 0.0 10141677
15:00+20ссз68519 0.0 10142107
18:00+17ссз4867100 0.1 1016300
21:00+13ссз411710 0.1 1017212
18 июня, пт
пт1800:00+11ссз411714 0.0 1019236
03:00+9сз368343 0.0 1020114
06:00+12ссз4679100 0.0 1022248
09:00+16ссз44645 0.0 1022815
12:00+19ссз465396 0.3 10222151
15:00+19ссв474959 0.4 10231830
18:00+18сз246320 0.0 1023113
21:00+13сз36805 0.0 102595